| time (UTC) | temp C | wind direction | speed KPH | gust KPH | rain 1hr cm | rain 24hr cm | rain mn cm | humidity % | barometer mb |
| 20260510123037 | 10 | 195 | 4.8 | 12.9 | 0.00 | 0.03 | 0.03 | 92 | 1009.7 |
| 20260510121536 | 10 | 219 | 6.4 | 19.3 | 0.00 | 0.03 | 0.03 | 92 | 1009.6 |
| 20260510120034 | 11 | 225 | 4.8 | 16.1 | 0.00 | 0.03 | 0.03 | 92 | 1009.5 |
| 20260510114537 | 10 | 174 | 6.4 | 17.7 | 0.00 | 0.03 | 0.03 | 92 | 1009.4 |
| 20260510113036 | 10 | 196 | 6.4 | 16.1 | 0.00 | 0.03 | 0.03 | 92 | 1009.4 |
| 20260510111533 | 10 | 226 | 6.4 | 16.1 | 0.00 | 0.03 | 0.03 | 92 | 1009.3 |
| 20260510110038 | 10 | 180 | 4.8 | 11.3 | 0.00 | 0.03 | 0.03 | 93 | 1009.2 |
| 20260510104527 | 10 | 194 | 4.8 | 16.1 | 0.00 | 0.03 | 0.03 | 92 | 1009.0 |
| 20260510103026 | 10 | 167 | 4.8 | 12.9 | 0.00 | 0.03 | 0.03 | 94 | 1008.7 |
| 20260510101525 | 9 | 218 | 1.6 | 8.0 | 0.00 | 0.03 | 0.03 | 94 | 1008.7 |
| 20260510100024 | 9 | 152 | 4.8 | 12.9 | 0.00 | 0.03 | 0.03 | 94 | 1007.9 |
| 20260510094540 | 9 | 192 | 6.4 | 19.3 | 0.00 | 0.03 | 0.03 | 94 | 1008.2 |
| 20260510093021 | 8 | 217 | 4.8 | 14.5 | 0.00 | 0.03 | 0.03 | 95 | 1008.2 |
| 20260510091523 | 8 | 212 | 3.2 | 11.3 | 0.00 | 0.03 | 0.03 | 95 | 1008.0 |
| 20260510090020 | 8 | 179 | 3.2 | 8.0 | 0.00 | 0.03 | 0.03 | 94 | 1007.9 |
| 20260510084522 | 9 | 149 | 0.0 | 9.7 | 0.03 | 0.03 | 0.03 | 94 | 1007.7 |
| 20260510083020 | 9 | 163 | 3.2 | 8.0 | 0.03 | 0.03 | 0.03 | 94 | 1007.6 |
| 20260510081519 | 10 | 207 | 4.8 | 11.3 | 0.03 | 0.03 | 0.03 | 94 | 1008.0 |
| 20260510080019 | 10 | 171 | 4.8 | 12.9 | 0.03 | 0.03 | 0.03 | 93 | 1008.3 |
| 20260510074517 | 10 | 225 | 4.8 | 17.7 | 0.03 | 0.03 | 0.03 | 93 | 1008.2 |
| 20260510073018 | 10 | 192 | 8.0 | 19.3 | 0.00 | 0.00 | 0.00 | 92 | 1008.0 |
| 20260510071514 | 10 | 135 | 3.2 | 17.7 | 0.00 | 0.00 | 0.00 | 91 | 1007.8 |
| 20260510070022 | 10 | 167 | 9.7 | 30.6 | 0.00 | 0.00 | 0.00 | 90 | 1008.0 |
| 20260510064514 | 11 | 185 | 9.7 | 19.3 | 0.00 | 0.00 | 0.00 | 89 | 1008.3 |
| 20260510063010 | 11 | 200 | 8.0 | 25.7 | 0.00 | 0.00 | 0.00 | 88 | 1008.0 |
| 20260510061506 | 11 | 196 | 8.0 | 27.4 | 0.00 | 0.00 | 0.00 | 88 | 1007.9 |
| 20260510060003 | 11 | 212 | 6.4 | 30.6 | 0.00 | 0.00 | 0.00 | 87 | 1008.1 |
| 20260510054559 | 11 | 182 | 11.3 | 22.5 | 0.00 | 0.00 | 0.00 | 87 | 1008.1 |
| 20260510053104 | 10 | 193 | 11.3 | 27.4 | 0.00 | 0.00 | 0.00 | 87 | 1008.2 |
| 20260510051556 | 10 | 144 | 6.4 | 16.1 | 0.00 | 0.00 | 0.00 | 88 | 1008.4 |
| 20260510050051 | 10 | 204 | 4.8 | 11.3 | 0.00 | 0.00 | 0.00 | 88 | 1008.3 |
| 20260510044553 | 10 | 207 | 3.2 | 12.9 | 0.00 | 0.00 | 0.00 | 88 | 1008.4 |
| 20260510043100 | 9 | 140 | 4.8 | 19.3 | 0.00 | 0.00 | 0.00 | 89 | 1008.0 |
| 20260510041545 | 8 | 148 | 4.8 | 9.7 | 0.00 | 0.00 | 0.00 | 90 | 1007.8 |
| 20260510040044 | 8 | 166 | 1.6 | 8.0 | 0.00 | 0.00 | 0.00 | 89 | 1007.7 |
| 20260510034540 | 9 | 161 | 1.6 | 8.0 | 0.00 | 0.00 | 0.00 | 89 | 1007.9 |
| 20260510033038 | 9 | 150 | 1.6 | 9.7 | 0.00 | 0.00 | 0.00 | 88 | 1008.1 |
| 20260510031545 | 10 | 169 | 4.8 | 14.5 | 0.00 | 0.00 | 0.00 | 88 | 1008.3 |
| 20260510030038 | 10 | 149 | 6.4 | 11.3 | 0.00 | 0.00 | 0.00 | 88 | 1008.3 |
| 20260510024540 | 10 | 213 | 3.2 | 11.3 | 0.00 | 0.00 | 0.00 | 88 | 1008.4 |
| 20260510023035 | 9 | 161 | 4.8 | 14.5 | 0.00 | 0.00 | 0.00 | 88 | 1008.5 |
| 20260510021542 | 9 | 120 | 4.8 | 14.5 | 0.00 | 0.00 | 0.00 | 87 | 1008.3 |
| 20260510020033 | 10 | 128 | 3.2 | 11.3 | 0.00 | 0.00 | 0.00 | 86 | 1008.7 |
| 20260510014533 | 10 | 139 | 6.4 | 12.9 | 0.00 | 0.00 | 0.00 | 86 | 1008.5 |
| 20260510013029 | 9 | 129 | 3.2 | 16.1 | 0.00 | 0.00 | 0.00 | 86 | 1008.6 |
| 20260510011539 | 9 | 142 | 1.6 | 11.3 | 0.00 | 0.00 | 0.00 | 86 | 1008.7 |
| 20260510010027 | 10 | 159 | 4.8 | 17.7 | 0.00 | 0.00 | 0.00 | 85 | 1008.8 |
| 20260510004532 | 9 | 112 | 4.8 | 12.9 | 0.00 | 0.00 | 0.00 | 85 | 1008.9 |
| 20260510003028 | 10 | 161 | 3.2 | 9.7 | 0.00 | 0.00 | 0.00 | 85 | 1009.0 |
| 20260510001527 | 10 | 188 | 0.0 | 9.7 | 0.00 | 0.00 | 0.00 | 84 | 1009.1 |
| 20260510000034 | 10 | 113 | 4.8 | 11.3 | 0.00 | 0.00 | 0.00 | 84 | 1009.0 |
| 20260509234525 | 10 | 167 | 3.2 | 12.9 | 0.00 | 0.00 | 0.00 | 84 | 1009.0 |
| 20260509233025 | 10 | 175 | 4.8 | 14.5 | 0.00 | 0.00 | 0.00 | 83 | 1008.9 |
| 20260509231523 | 10 | 144 | 4.8 | 11.3 | 0.00 | 0.00 | 0.00 | 83 | 1009.0 |
| 20260509230023 | 10 | 136 | 3.2 | 12.9 | 0.00 | 0.00 | 0.00 | 82 | 1008.8 |
| 20260509224526 | 10 | 168 | 4.8 | 14.5 | 0.00 | 0.00 | 0.00 | 81 | 1008.9 |
| 20260509223025 | 10 | 156 | 6.4 | 12.9 | 0.00 | 0.00 | 0.00 | 82 | 1009.1 |
| 20260509221524 | 10 | 169 | 4.8 | 16.1 | 0.00 | 0.00 | 0.00 | 82 | 1009.2 |
| 20260509220025 | 10 | 138 | 6.4 | 16.1 | 0.00 | 0.00 | 0.00 | 82 | 1009.2 |
| 20260509214523 | 10 | 142 | 6.4 | 14.5 | 0.00 | 0.00 | 0.00 | 81 | 1009.3 |
| 20260509213028 | 10 | 137 | 8.0 | 20.9 | 0.00 | 0.00 | 0.00 | 80 | 1009.4 |
| 20260509211521 | 11 | 151 | 9.7 | 25.7 | 0.00 | 0.00 | 0.00 | 78 | 1009.4 |
| 20260509210020 | 11 | 148 | 6.4 | 16.1 | 0.00 | 0.00 | 0.00 | 78 | 1009.7 |
| 20260509204519 | 11 | 196 | 3.2 | 22.5 | 0.00 | 0.00 | 0.00 | 77 | 1009.8 |
| 20260509203018 | 11 | 165 | 8.0 | 16.1 | 0.00 | 0.00 | 0.00 | 74 | 1009.9 |
| 20260509201517 | 12 | 105 | 11.3 | 30.6 | 0.00 | 0.00 | 0.00 | 72 | 1009.6 |
| 20260509200018 | 12 | 136 | 6.4 | 20.9 | 0.00 | 0.00 | 0.00 | 71 | 1009.8 |
| 20260509194515 | 12 | 221 | 6.4 | 20.9 | 0.00 | 0.00 | 0.00 | 73 | 1009.8 |
| 20260509193024 | 11 | 186 | 9.7 | 22.5 | 0.00 | 0.00 | 0.00 | 71 | 1009.9 |
| 20260509191513 | 12 | 188 | 9.7 | 17.7 | 0.00 | 0.00 | 0.00 | 69 | 1010.0 |
| 20260509190011 | 12 | 137 | 6.4 | 19.3 | 0.00 | 0.00 | 0.00 | 69 | 1010.1 |
| 20260509184528 | 12 | 180 | 12.9 | 30.6 | 0.00 | 0.00 | 0.00 | 65 | 1010.3 |
| 20260509183012 | 13 | 171 | 6.4 | 24.1 | 0.00 | 0.00 | 0.00 | 62 | 1010.5 |
| 20260509181511 | 13 | 147 | 9.7 | 29.0 | 0.00 | 0.00 | 0.00 | 58 | 1010.4 |
| 20260509180014 | 13 | 186 | 9.7 | 20.9 | 0.00 | 0.00 | 0.00 | 54 | 1010.5 |
| 20260509174520 | 14 | 224 | 8.0 | 16.1 | 0.00 | 0.00 | 0.00 | 52 | 1010.5 |
| 20260509173009 | 14 | 205 | 6.4 | 16.1 | 0.00 | 0.00 | 0.00 | 48 | 1010.4 |
| 20260509171509 | 14 | 242 | 4.8 | 16.1 | 0.00 | 0.00 | 0.00 | 48 | 1010.6 |
| 20260509170010 | 14 | 249 | 4.8 | 11.3 | 0.00 | 0.00 | 0.00 | 48 | 1010.6 |
| 20260509164503 | 14 | 242 | 6.4 | 14.5 | 0.00 | 0.00 | 0.00 | 44 | 1010.6 |
| 20260509163001 | 14 | 186 | 4.8 | 16.1 | 0.00 | 0.00 | 0.00 | 44 | 1010.9 |
| 20260509161500 | 15 | 123 | 6.4 | 14.5 | 0.00 | 0.00 | 0.00 | 44 | 1011.1 |
| 20260509160058 | 14 | 136 | 3.2 | 12.9 | 0.00 | 0.00 | 0.00 | 42 | 1011.2 |
| 20260509154600 | 14 | 207 | 6.4 | 12.9 | 0.00 | 0.00 | 0.00 | 44 | 1011.6 |
| 20260509153117 | 14 | 238 | 6.4 | 12.9 | 0.00 | 0.00 | 0.00 | 45 | 1011.8 |
| 20260509151557 | 14 | 120 | 4.8 | 17.7 | 0.00 | 0.00 | 0.00 | 46 | 1012.1 |
| 20260509150055 | 13 | 238 | 4.8 | 14.5 | 0.00 | 0.00 | 0.00 | 45 | 1012.1 |
| 20260509144551 | 13 | 131 | 8.0 | 17.7 | 0.00 | 0.00 | 0.00 | 46 | 1012.2 |
| 20260509143050 | 13 | 153 | 8.0 | 19.3 | 0.00 | 0.00 | 0.00 | 47 | 1012.4 |
| 20260509141547 | 13 | 156 | 4.8 | 19.3 | 0.00 | 0.00 | 0.00 | 50 | 1012.4 |
| 20260509140045 | 12 | 198 | 8.0 | 17.7 | 0.00 | 0.00 | 0.00 | 48 | 1012.5 |
| 20260509134545 | 12 | 118 | 6.4 | 22.5 | 0.00 | 0.00 | 0.00 | 50 | 1012.5 |
| 20260509133043 | 12 | 174 | 6.4 | 22.5 | 0.00 | 0.00 | 0.00 | 51 | 1012.5 |
| 20260509131540 | 12 | 191 | 8.0 | 19.3 | 0.00 | 0.00 | 0.00 | 52 | 1012.7 |
| 20260509130041 | 11 | 157 | 6.4 | 17.7 | 0.00 | 0.00 | 0.00 | 52 | 1012.8 |
| 20260509124541 | 11 | 175 | 4.8 | 14.5 | 0.00 | 0.00 | 0.00 | 53 | 1013.2 |